Time,TemperatureF,DewpointF,PressureIn,WindDirection,WindDirectionDegrees,WindSpeedMPH,WindSpeedGustMPH,Humidity,HourlyPrecipIn,Conditions,Clouds,dailyrainin,SoftwareType,DateUTC
2013-06-26 00:02:00,84.0,79.0,-100.00,East,90,4.0,-999.0,85,-99.99,,,-99.99,,2013-06-26 05:02:00,
2013-06-26 00:11:00,84.0,79.0,-100.00,East,90,4.0,-999.0,85,-99.99,,,-99.99,,2013-06-26 05:11:00,
2013-06-26 00:22:00,83.0,78.0,-100.00,ESE,113,3.0,-999.0,87,-99.99,,,-99.99,,2013-06-26 05:22:00,
2013-06-26 00:34:00,83.0,78.0,-100.00,ESE,113,4.0,-999.0,86,-99.99,,,-99.99,,2013-06-26 05:34:00,
2013-06-26 00:43:00,83.0,78.0,-100.00,ESE,113,4.0,-999.0,86,-99.99,,,-99.99,,2013-06-26 05:43:00,
2013-06-26 00:52:00,82.0,78.0,-100.00,SE,135,3.0,-999.0,87,-99.99,,,-99.99,,2013-06-26 05:52:00,
2013-06-26 01:02:00,82.0,78.0,-100.00,ESE,113,2.0,-999.0,88,-99.99,,,-99.99,,2013-06-26 06:02:00,
2013-06-26 01:11:00,82.0,78.0,-100.00,ESE,113,2.0,-999.0,88,-99.99,,,-99.99,,2013-06-26 06:11:00,
2013-06-26 01:22:00,82.0,78.0,-100.00,ESE,113,2.0,-999.0,88,-99.99,,,-99.99,,2013-06-26 06:22:00,
2013-06-26 01:34:00,81.0,78.0,-100.00,ENE,68,1.0,-999.0,91,-99.99,,,-99.99,,2013-06-26 06:34:00,
2013-06-26 01:43:00,81.0,78.0,-100.00,ENE,68,1.0,-999.0,91,-99.99,,,-99.99,,2013-06-26 06:43:00,
2013-06-26 01:53:00,80.0,78.0,-100.00,ESE,113,1.0,-999.0,92,-99.99,,,-99.99,,2013-06-26 06:53:00,
2013-06-26 02:01:00,80.0,77.0,-100.00,East,90,0.0,-999.0,93,-99.99,,,-99.99,,2013-06-26 07:01:00,
2013-06-26 02:11:00,80.0,77.0,-100.00,East,90,0.0,-999.0,93,-99.99,,,-99.99,,2013-06-26 07:11:00,
2013-06-26 02:22:00,80.0,77.0,-100.00,East,90,0.0,-999.0,93,-99.99,,,-99.99,,2013-06-26 07:22:00,
2013-06-26 02:33:00,79.0,77.0,-100.00,West,270,0.0,-999.0,95,-99.99,,,-99.99,,2013-06-26 07:33:00,
2013-06-26 02:43:00,79.0,77.0,-100.00,West,270,0.0,-999.0,95,-99.99,,,-99.99,,2013-06-26 07:43:00,
2013-06-26 02:53:00,78.0,77.0,-100.00,WSW,248,3.0,-999.0,96,-99.99,,,-99.99,,2013-06-26 07:53:00,
2013-06-26 03:01:00,77.0,76.0,-100.00,West,270,5.0,-999.0,98,-99.99,,,-99.99,,2013-06-26 08:01:00,
2013-06-26 03:22:00,78.0,78.0,-100.00,West,270,7.0,-999.0,99,-99.99,,,-99.99,,2013-06-26 08:22:00,
2013-06-26 03:33:00,78.0,78.0,-100.00,West,270,7.0,-999.0,98,-99.99,,,-99.99,,2013-06-26 08:33:00,
2013-06-26 03:42:00,78.0,78.0,-100.00,West,270,7.0,-999.0,98,-99.99,,,-99.99,,2013-06-26 08:42:00,
2013-06-26 03:53:00,78.0,78.0,-100.00,West,270,8.0,-999.0,99,-99.99,,,-99.99,,2013-06-26 08:53:00,
2013-06-26 04:01:00,78.0,78.0,-100.00,West,270,8.0,-999.0,99,-99.99,,,-99.99,,2013-06-26 09:01:00,
2013-06-26 04:22:00,78.0,78.0,-100.00,West,270,8.0,-999.0,98,-99.99,,,-99.99,,2013-06-26 09:22:00,
2013-06-26 04:32:00,78.0,78.0,-100.00,West,270,6.0,-999.0,99,-99.99,,,-99.99,,2013-06-26 09:32:00,
2013-06-26 04:43:00,78.0,78.0,-100.00,West,270,6.0,-999.0,99,-99.99,,,-99.99,,2013-06-26 09:43:00,
2013-06-26 04:53:00,79.0,79.0,-100.00,West,270,8.0,-999.0,99,-99.99,,,-99.99,,2013-06-26 09:53:00,
2013-06-26 05:01:00,79.0,79.0,-100.00,West,270,6.0,-999.0,98,-99.99,,,-99.99,,2013-06-26 10:01:00,
2013-06-26 05:22:00,79.0,78.0,-100.00,WSW,248,6.0,-999.0,97,-99.99,,,-99.99,,2013-06-26 10:22:00,
2013-06-26 05:34:00,80.0,78.0,-100.00,West,270,6.0,-999.0,96,-99.99,,,-99.99,,2013-06-26 10:34:00,
2013-06-26 05:43:00,80.0,78.0,-100.00,West,270,6.0,-999.0,96,-99.99,,,-99.99,,2013-06-26 10:43:00,
2013-06-26 05:53:00,80.0,78.0,-100.00,WSW,248,6.0,-999.0,95,-99.99,,,-99.99,,2013-06-26 10:53:00,
2013-06-26 06:02:00,79.0,77.0,-100.00,West,270,5.0,-999.0,95,-99.99,,,-99.99,,2013-06-26 11:02:00,
2013-06-26 06:11:00,79.0,77.0,-100.00,West,270,5.0,-999.0,95,-99.99,,,-99.99,,2013-06-26 11:11:00,
2013-06-26 06:22:00,79.0,77.0,-100.00,WSW,248,2.0,-999.0,95,-99.99,,,-99.99,,2013-06-26 11:22:00,
2013-06-26 06:32:00,78.0,76.0,-100.00,SSW,203,1.0,-999.0,95,-99.99,,,-99.99,,2013-06-26 11:32:00,
2013-06-26 06:44:00,78.0,76.0,-100.00,SSW,203,1.0,-999.0,95,-99.99,,,-99.99,,2013-06-26 11:44:00,
2013-06-26 06:52:00,78.0,77.0,-100.00,South,180,0.0,-999.0,96,-99.99,,,-99.99,,2013-06-26 11:52:00,
2013-06-26 07:02:00,78.0,76.0,-100.00,WSW,248,2.0,-999.0,93,-99.99,,,-99.99,,2013-06-26 12:02:00,
2013-06-26 07:22:00,79.0,77.0,-100.00,West,270,4.0,-999.0,92,-99.99,,,-99.99,,2013-06-26 12:22:00,
2013-06-26 07:33:00,80.0,77.0,-100.00,West,270,4.0,-999.0,89,-99.99,,,-99.99,,2013-06-26 12:33:00,
2013-06-26 07:42:00,80.0,77.0,-100.00,West,270,4.0,-999.0,89,-99.99,,,-99.99,,2013-06-26 12:42:00,
2013-06-26 07:52:00,81.0,77.0,-100.00,WNW,293,4.0,-999.0,85,-99.99,,,-99.99,,2013-06-26 12:52:00,
2013-06-26 08:22:00,83.0,76.0,-100.00,WNW,293,6.0,-999.0,78,-99.99,,,-99.99,,2013-06-26 13:22:00,
2013-06-26 08:34:00,83.0,75.0,-100.00,NW,315,8.0,-999.0,75,-99.99,,,-99.99,,2013-06-26 13:34:00,
2013-06-26 08:42:00,83.0,75.0,-100.00,NW,315,8.0,-999.0,75,-99.99,,,-99.99,,2013-06-26 13:42:00,
2013-06-26 08:53:00,84.0,75.0,-100.00,WNW,293,9.0,-999.0,72,-99.99,,,-99.99,,2013-06-26 13:53:00,
2013-06-26 09:23:00,85.0,74.0,-100.00,WNW,293,12.0,-999.0,69,-99.99,,,-99.99,,2013-06-26 14:23:00,
2013-06-26 09:34:00,86.0,75.0,-100.00,WNW,293,11.0,-999.0,70,-99.99,,,-99.99,,2013-06-26 14:34:00,
2013-06-26 09:42:00,86.0,75.0,-100.00,WNW,293,11.0,-999.0,70,-99.99,,,-99.99,,2013-06-26 14:42:00,
2013-06-26 09:53:00,86.0,75.0,-100.00,WNW,293,10.0,-999.0,69,-99.99,,,-99.99,,2013-06-26 14:53:00,
2013-06-26 10:02:00,87.0,75.0,-100.00,WNW,293,14.0,-999.0,67,-99.99,,,-99.99,,2013-06-26 15:02:00,
2013-06-26 10:34:00,88.0,75.0,-100.00,WNW,293,8.0,-999.0,65,-99.99,,,-99.99,,2013-06-26 15:34:00,
2013-06-26 10:44:00,88.0,75.0,-100.00,WNW,293,8.0,-999.0,65,-99.99,,,-99.99,,2013-06-26 15:44:00,
2013-06-26 10:53:00,87.0,73.0,-100.00,WNW,293,13.0,-999.0,62,-99.99,,,-99.99,,2013-06-26 15:53:00,
2013-06-26 11:01:00,88.0,74.0,-100.00,NW,315,7.0,-999.0,62,-99.99,,,-99.99,,2013-06-26 16:01:00,
2013-06-26 11:22:00,89.0,72.0,-100.00,NW,315,13.0,-999.0,57,-99.99,,,-99.99,,2013-06-26 16:22:00,
2013-06-26 11:34:00,89.0,74.0,-100.00,NW,315,6.0,-999.0,60,-99.99,,,-99.99,,2013-06-26 16:34:00,
2013-06-26 11:43:00,89.0,74.0,-100.00,NW,315,6.0,-999.0,60,-99.99,,,-99.99,,2013-06-26 16:43:00,
2013-06-26 11:52:00,90.0,72.0,-100.00,WNW,293,12.0,-999.0,55,-99.99,,,-99.99,,2013-06-26 16:52:00,
2013-06-26 12:01:00,90.0,72.0,-100.00,WNW,293,9.0,-999.0,55,-99.99,,,-99.99,,2013-06-26 17:01:00,
2013-06-26 12:23:00,90.0,71.0,-100.00,WNW,293,11.0,-999.0,53,-99.99,,,-99.99,,2013-06-26 17:23:00,
2013-06-26 12:33:00,92.0,70.0,-100.00,WNW,293,11.0,-999.0,48,-99.99,,,-99.99,,2013-06-26 17:33:00,
2013-06-26 12:43:00,92.0,70.0,-100.00,WNW,293,11.0,-999.0,48,-99.99,,,-99.99,,2013-06-26 17:43:00,
2013-06-26 12:52:00,92.0,70.0,-100.00,NW,315,9.0,-999.0,48,-99.99,,,-99.99,,2013-06-26 17:52:00,
2013-06-26 13:01:00,93.0,69.0,-100.00,WNW,293,11.0,-999.0,46,-99.99,,,-99.99,,2013-06-26 18:01:00,
2013-06-26 13:43:00,94.0,68.0,-100.00,WNW,293,10.0,-999.0,43,-99.99,,,-99.99,,2013-06-26 18:43:00,
2013-06-26 14:01:00,95.0,66.0,-100.00,WNW,293,11.0,-999.0,39,-99.99,,,-99.99,,2013-06-26 19:01:00,
2013-06-26 14:11:00,95.0,66.0,-100.00,WNW,293,11.0,-999.0,39,-99.99,,,-99.99,,2013-06-26 19:11:00,
2013-06-26 14:22:00,94.0,65.0,-100.00,NW,315,9.0,-999.0,39,-99.99,,,-99.99,,2013-06-26 19:22:00,
2013-06-26 14:32:00,94.0,63.0,-100.00,NW,315,10.0,-999.0,36,-99.99,,,-99.99,,2013-06-26 19:32:00,
2013-06-26 14:42:00,94.0,63.0,-100.00,NW,315,10.0,-999.0,36,-99.99,,,-99.99,,2013-06-26 19:42:00,
2013-06-26 14:52:00,95.0,65.0,-100.00,NW,315,10.0,-999.0,38,-99.99,,,-99.99,,2013-06-26 19:52:00,
2013-06-26 15:01:00,96.0,66.0,-100.00,NW,315,4.0,-999.0,38,-99.99,,,-99.99,,2013-06-26 20:01:00,
2013-06-26 15:12:00,96.0,66.0,-100.00,NW,315,4.0,-999.0,38,-99.99,,,-99.99,,2013-06-26 20:12:00,
2013-06-26 15:22:00,95.0,66.0,-100.00,NW,315,8.0,-999.0,38,-99.99,,,-99.99,,2013-06-26 20:22:00,
2013-06-26 15:33:00,96.0,65.0,-100.00,NW,315,9.0,-999.0,37,-99.99,,,-99.99,,2013-06-26 20:33:00,
2013-06-26 15:43:00,96.0,65.0,-100.00,NW,315,9.0,-999.0,37,-99.99,,,-99.99,,2013-06-26 20:43:00,
2013-06-26 15:52:00,96.0,65.0,-100.00,NW,315,8.0,-999.0,37,-99.99,,,-99.99,,2013-06-26 20:52:00,
2013-06-26 16:02:00,96.0,69.0,-100.00,NW,315,6.0,-999.0,41,-99.99,,,-99.99,,2013-06-26 21:02:00,
2013-06-26 16:23:00,96.0,66.0,-100.00,NW,315,5.0,-999.0,38,-99.99,,,-99.99,,2013-06-26 21:23:00,
2013-06-26 16:33:00,96.0,69.0,-100.00,NW,315,4.0,-999.0,41,-99.99,,,-99.99,,2013-06-26 21:33:00,
2013-06-26 16:43:00,96.0,69.0,-100.00,NW,315,4.0,-999.0,41,-99.99,,,-99.99,,2013-06-26 21:43:00,
2013-06-26 16:52:00,95.0,66.0,-100.00,WNW,293,7.0,-999.0,38,-99.99,,,-99.99,,2013-06-26 21:52:00,
2013-06-26 17:01:00,94.0,67.0,-100.00,NW,315,6.0,-999.0,41,-99.99,,,-99.99,,2013-06-26 22:01:00,
2013-06-26 17:22:00,96.0,68.0,-100.00,NW,315,6.0,-999.0,41,-99.99,,,-99.99,,2013-06-26 22:22:00,
2013-06-26 17:34:00,95.0,66.0,-100.00,NW,315,6.0,-999.0,39,-99.99,,,-99.99,,2013-06-26 22:34:00,
2013-06-26 17:43:00,95.0,66.0,-100.00,NW,315,6.0,-999.0,39,-99.99,,,-99.99,,2013-06-26 22:43:00,
2013-06-26 17:52:00,96.0,68.0,-100.00,NW,315,5.0,-999.0,40,-99.99,,,-99.99,,2013-06-26 22:52:00,
2013-06-26 18:01:00,95.0,67.0,-100.00,WNW,293,4.0,-999.0,40,-99.99,,,-99.99,,2013-06-26 23:01:00,
2013-06-26 18:22:00,96.0,69.0,-100.00,WNW,293,4.0,-999.0,42,-99.99,,,-99.99,,2013-06-26 23:22:00,
2013-06-26 18:34:00,94.0,69.0,-100.00,NW,315,3.0,-999.0,44,-99.99,,,-99.99,,2013-06-26 23:34:00,
2013-06-26 18:43:00,94.0,69.0,-100.00,NW,315,3.0,-999.0,44,-99.99,,,-99.99,,2013-06-26 23:43:00,
2013-06-26 18:53:00,93.0,70.0,-100.00,WNW,293,4.0,-999.0,47,-99.99,,,-99.99,,2013-06-26 23:53:00,
2013-06-26 19:01:00,94.0,70.0,-100.00,NW,315,4.0,-999.0,46,-99.99,,,-99.99,,2013-06-27 00:01:00,
2013-06-26 19:22:00,94.0,70.0,-100.00,West,270,3.0,-999.0,46,-99.99,,,-99.99,,2013-06-27 00:22:00,
2013-06-26 19:33:00,93.0,70.0,-100.00,NW,315,3.0,-999.0,47,-99.99,,,-99.99,,2013-06-27 00:33:00,
2013-06-26 19:42:00,93.0,70.0,-100.00,NW,315,3.0,-999.0,47,-99.99,,,-99.99,,2013-06-27 00:42:00,
2013-06-26 19:53:00,93.0,71.0,-100.00,NW,315,3.0,-999.0,50,-99.99,,,-99.99,,2013-06-27 00:53:00,
2013-06-26 20:01:00,91.0,70.0,-100.00,NW,315,3.0,-999.0,49,-99.99,,,-99.99,,2013-06-27 01:01:00,
2013-06-26 20:21:00,91.0,70.0,-100.00,NW,315,3.0,-999.0,49,-99.99,,,-99.99,,2013-06-27 01:21:00,
2013-06-26 20:32:00,90.0,71.0,-100.00,West,270,1.0,-999.0,54,-99.99,,,-99.99,,2013-06-27 01:32:00,
2013-06-26 20:42:00,90.0,71.0,-100.00,West,270,1.0,-999.0,54,-99.99,,,-99.99,,2013-06-27 01:42:00,
2013-06-26 20:53:00,88.0,73.0,-100.00,NNE,23,2.0,-999.0,60,-99.99,,,-99.99,,2013-06-27 01:53:00,
2013-06-26 21:01:00,86.0,73.0,-100.00,NNE,23,2.0,-999.0,64,-99.99,,,-99.99,,2013-06-27 02:01:00,
2013-06-26 21:22:00,85.0,75.0,-100.00,NNE,23,2.0,-999.0,72,-99.99,,,-99.99,,2013-06-27 02:22:00,
2013-06-26 21:32:00,84.0,75.0,-100.00,NNE,23,1.0,-999.0,74,-99.99,,,-99.99,,2013-06-27 02:32:00,
2013-06-26 21:42:00,84.0,75.0,-100.00,NNE,23,1.0,-999.0,74,-99.99,,,-99.99,,2013-06-27 02:42:00,
2013-06-26 21:52:00,83.0,75.0,-100.00,NNE,23,1.0,-999.0,78,-99.99,,,-99.99,,2013-06-27 02:52:00,
2013-06-26 22:02:00,82.0,74.0,-100.00,NNE,23,1.0,-999.0,78,-99.99,,,-99.99,,2013-06-27 03:02:00,
2013-06-26 22:21:00,82.0,75.0,-100.00,NNE,23,2.0,-999.0,79,-99.99,,,-99.99,,2013-06-27 03:21:00,
2013-06-26 22:32:00,81.0,74.0,-100.00,NNE,23,0.0,-999.0,80,-99.99,,,-99.99,,2013-06-27 03:32:00,
2013-06-26 22:42:00,81.0,-99.9,-100.00,NNE,23,0.0,-999.0,80,-99.99,,,-99.99,,2013-06-27 03:42:00,
2013-06-26 22:52:00,81.0,74.0,-100.00,NE,45,0.0,-999.0,79,-99.99,,,-99.99,,2013-06-27 03:52:00,
2013-06-26 23:01:00,80.0,74.0,-100.00,South,180,1.0,-999.0,80,-99.99,,,-99.99,,2013-06-27 04:01:00,
2013-06-26 23:22:00,79.0,-99.9,-100.00,WNW,293,0.0,-999.0,83,-99.99,,,-99.99,,2013-06-27 04:22:00,
2013-06-26 23:33:00,80.0,-99.9,-100.00,SSW,203,0.0,-999.0,81,-99.99,,,-99.99,,2013-06-27 04:33:00,
2013-06-26 23:42:00,80.0,-99.9,-100.00,SSW,203,0.0,-999.0,81,-99.99,,,-99.99,,2013-06-27 04:42:00,
2013-06-26 23:53:00,79.0,-99.9,-100.00,NW,315,0.0,-999.0,85,-99.99,,,-99.99,,2013-06-27 04:53:00,